Regional Weather Roundup
Issued by NWS

Home | Current Version | Previous Version | Graphics & Text | Print | Product List | Glossary On
Versions: 1 2 3 4 5 6 7 8 9 10 11 12 13 14 15 16 17 18 19 20 21 22 23 24 25 26 27 28 29 30 31 32 33 34 35 36 37 38 39 40 41 42 43 44 45 46 47 48 49 50
000
ASUS43 KIND 091459
RWRIN

WEATHER ROUNDUP FOR INDIANA
NATIONAL WEATHER SERVICE INDIANAPOLIS IN
1100 AM EDT WED JUL 09 2014

NOTE: "FAIR" INDICATES FEW OR NO CLOUDS BELOW 12,000 FEET WITH NO
SIGNIFICANT WEATHER AND/OR OBSTRUCTIONS TO VISIBILITY.

* - STATION DOES NOT REPORT WEATHER SUCH AS PRECIPITATION OR FOG.

+ - STATION NOT QUALITY CONTROLLED BY THE NATIONAL WEATHER SERVICE.
    USE DATA WITH CAUTION...ESPECIALLY DEWPOINT AND RELATIVE
    HUMIDITY OBSERVATIONS.

INZ001>003-010>013-019-020-091600-
NORTHWEST INDIANA

CITY           SKY/WX    TMP DP  RH WIND       PRES   REMARKS
GARY /AIRPORT/ MOSUNNY   72  63  73 NE7       29.94R
RENSSELAER +   SUNNY     72  63  73 W6        29.94S
VALPARAISO     MOSUNNY   72  59  63 VRB5      29.94R

$$

LMZ046-743>745-091600-
SOUTHERN LAKE MICHIGAN

STATION/POSITION TIME  TEMP WIND        PRES
                       AIR  DIR/SP/G
                 (UTC) (F)  (DEG/KT/KT) (MB)
MICHIGAN CITY    1400   68  330/  7/  8   N/A

$$

INZ004-005-014>016-021>024-091600-
NORTH CENTRAL INDIANA

CITY           SKY/WX    TMP DP  RH WIND       PRES   REMARKS
ELKHART        SUNNY     72  57  60 NW12      29.93R
GOSHEN         MOSUNNY   73  61  65 W9        29.92R
SOUTH BEND     MOSUNNY   73  58  59 NW13      29.93R

$$

INZ006>009-017-018-025>027-091600-
NORTHEAST INDIANA

CITY           SKY/WX    TMP DP  RH WIND       PRES   REMARKS
ANGOLA *+      SUNNY     73  61  64 VRB6      29.90S
FORT WAYNE     MOSUNNY   76  60  57 W7        29.92R

$$

INZ028-029-035-036-043>045-051>053-091600-
WEST CENTRAL INDIANA

CITY           SKY/WX    TMP DP  RH WIND       PRES   REMARKS
GREENCASTLE +  PTSUNNY   73  61  64 CALM      29.98R
LAFAYETTE      SUNNY     74  61  63 W7        29.94R
TERRE HAUTE    CLOUDY    75  62  64 W5        29.97R

$$

INZ030>032-037>040-046>048-054>057-064-065-091600-
CENTRAL INDIANA

CITY           SKY/WX    TMP DP  RH WIND       PRES   REMARKS
ANDERSON       SUNNY     75  59  57 W9        29.96S
INDIANAPOLIS   MOSUNNY   76  62  62 W10       29.96R
-EAGLE CREEK   MOSUNNY   76  59  55 W8        29.95S
KOKOMO *+      MOSUNNY   73  63  68 W7        29.94R
MT COMFORT *+  SUNNY     77  64  65 SW8       29.96S
SHELBYVILLE    SUNNY     78  61  55 W9        29.96R

$$

INZ033-034-041-042-049-050-058-059-091600-
EAST CENTRAL INDIANA

CITY           SKY/WX    TMP DP  RH WIND       PRES   REMARKS
MUNCIE         MOSUNNY   75  61  61 W8        29.94S

$$

INZ060-061-067>069-081>083-085>088-091600-
SOUTHWEST INDIANA

CITY           SKY/WX    TMP DP  RH WIND       PRES   REMARKS
EVANSVILLE     SUNNY     79  61  53 NW6       30.01R
HUNTINGBURG *+ SUNNY     77  63  61 W6        30.00S

$$

INZ062-063-066-070>080-084-089>092-091600-
SOUTH CENTRAL AND SOUTHEAST INDIANA

CITY           SKY/WX    TMP DP  RH WIND       PRES   REMARKS
BLOOMINGTON    SUNNY     76  61  59 W7        29.98S

$$




USA.gov is the U.S. government's official web portal to all federal, state and local government web resources and services.